www.pogodaiklimat.ru

Погода и климат >> Архив погоды >> Индонезия >> Тернат


ПОГОДА в Тернате

  • Прогноз погоды в Тернате
  • Монитор погоды в Тернате

АРХИВ ПОГОДЫ в Тернате

Время (UTC), дата Ветер
(напр.,м/с)
 
Видим.   Явления Облачность Т
(С)
Тd
(С)
f
(%)
Тe
(С)
Тes
(С)
Комфортность P
(гПа)
Po
(гПа)
Тmin
(С)
Tmax
(С)
R
(мм)
R24
(мм)
S
(см)
00 10.09 Ю 3 10 км 4/3 570 м
[Cu med, cong Ac trans Ci fib]
+28.0 +20.7 65 +35 +40 очень
душно
1013.9 1010.0 +24.6
03 10.09 Ю 3 10 км 5/4 570 м
[Cu med, cong Ac trans Ci sp]
+30.0 +21.0 59 +38 +48 очень
душно
1013.4 1009.5
06 10.09 З 4 10 км 6/4 540 м
[Cu med, cong Ac trans Ci sp]
+31.2 +21.1 55 +39 +44 очень
душно
1011.2 1007.3
09 10.09 Ю 2 10 км 4/3 570 м
[Cu med, cong Ac trans Ci sp]
+27.9 +21.9 70 +36 +36 очень
душно
1011.9 1008.0
12 10.09 штиль 0 10 км 5/4 570 м
[Cu med, cong Ac trans Ci sp]
+25.6 +21.9 80 +33 +33 очень
душно
1014.2 1010.3 +32.6
15 10.09 ЮЗ 2 10 км 4/3 570 м
[Cu med, cong Ac trans Ci fib]
+24.8 +20.2 76 +31 +31 очень
душно
1014.5 1010.6
18 10.09 Ю 5 10 км 3/3 570 м
[Cu med, cong Ac trans Ci fib]
+25.6 +20.7 74 +32 +32 очень
душно
1013.1 1009.2
21 10.09 ЮЗ 2 10 км 4/3 570 м
[Cu med, cong Ac trans Ci fib]
+25.6 +19.8 70 +31 +31 очень
душно
1013.7 1009.8
00 11.09 Ю 2 10 км 5/4 540 м
[Cu med, cong Ac trans Ci fib]
+27.8 +21.0 67 +35 +40 очень
душно
1014.8 1010.9 +24.6
03 11.09 Ю 5 10 км 5/5 540 м
[]
+29.4 +21.2 61 +37 +42 очень
душно
1013.7 1009.8
06 11.09 Ю 5 10 км 5/4 540 м
[Cu med, cong Ac trans Ci sp]
+29.4 +21.2 61 +37 +41 очень
душно
1011.5 1007.6
09 11.09 ЮЗ 4 10 км 3/1 600 м
[Cu med, cong Ci fib]
+27.6 +15.7 48 +31 +31 душно 1011.7 1007.8
12 11.09 Ю 2 10 км 3/3 570 м
[Cu med, cong Ci fib]
+26.0 +19.6 68 +32 +32 очень
душно
1014.2 1010.3 +30.0
15 11.09 Ю 2 10 км 4/3 570 м
[Cu med, cong Ac trans Ci fib]
+25.4 +20.2 73 +31 +31 очень
душно
1014.8 1010.9
18 11.09 Ю 2 10 км 4/3 570 м
[Cu med, cong Ac trans Ci fib]
+25.0 +20.7 77 +31 +31 очень
душно
1013.5 1009.6
21 11.09 Ю 2 10 км 4/4 570 м
[Cu med, cong Ac trans Ci fib]
+25.2 +21.2 79 +32 +32 очень
душно
1013.4 1009.5
00 12.09 Ю 5 9000 м 6/5 540 м
[Cu med, cong Ac trans Ci sp]
+27.2 +22.2 74 +35 +38 очень
душно
1014.5 1010.6 +25.0
03 12.09 Ю 7 9000 м 5/4 540 м
[Cu med, cong Ac trans Ci fib]
+29.6 +22.4 65 +39 +42 очень
душно
1013.5 1009.6
06 12.09 Ю 4 9000 м 5/4 540 м
[Cu med, cong Ac trans Ci fib]
+30.0 +22.5 64 +39 +45 очень
душно
1010.7 1006.8
09 12.09 Ю 3 10 км 1/1 570 м
[Cu med, cong Ci fib]
+27.8 +23.1 76 +37 +38 очень
душно
1010.7 1006.8
12 12.09 Ю 2 10 км 1/1 570 м
[Cu med, cong Ci fib]
+26.4 +22.8 81 +35 +35 очень
душно
1012.6 1008.7 +30.8
15 12.09 ЮЗ 1 10 км 3/1 570 м
[Cu med, cong Ac trans Ci sp]
+25.8 +21.9 79 +33 +33 очень
душно
1013.0 1009.1
18 12.09 Ю 3 10 км 4/3 570 м
[Cu med, cong Ac trans Ci sp]
+25.6 +22.0 81 +33 +33 очень
душно
1012.4 1008.5
21 12.09 Ю 2 9000 м 6/5 540 м
[Cu med, cong Ac trans Ci sp]
+25.4 +22.4 83 +33 +33 очень
душно
1013.1 1009.2
00 13.09 Ю 8 9000 м 5/4 540 м
[Cu med, cong Ac trans Ci sp]
+27.6 +22.3 73 +36 +37 очень
душно
1013.8 1009.9 +25.2
03 13.09 ЮЗ 6 9000 м 1/1 600 м
[Cu med, cong Ci fib]
+30.2 +20.6 56 +37 +46 очень
душно
1011.8 1007.9
06 13.09 штиль 0 50 км ?/? +31.0 +21.2 56 +39 +39 очень
душно
1009.8 1005.9
09 13.09 ЮЗ 3 9000 м 4/3 570 м
[Cu med, cong Ac trans Ci sp]
+27.8 +22.5 73 +37 +37 очень
душно
1010.6 1006.7
12 13.09 ЮЗ 3 9000 м 4/4 540 м
[Cu med, cong Ac trans Ci sp]
+26.6 +23.0 81 +36 +36 очень
душно
1013.2 1009.3 +31.8
15 13.09 Ю 4 10 км 4/4 540 м
[Cu med, cong Ac trans Ci sp]
+26.3 +23.1 83 +35 +35 очень
душно
1013.9 1010.0
18 13.09 Ю 3 10 км 4/4 540 м
[Cu med, cong Ac trans Ci sp]
+25.8 +23.0 85 +34 +34 очень
душно
1012.9 1009.0
21 13.09 Ю 2 10 км 6/5 480 м
[Cu med, cong Ac trans Ci sp]
+25.4 +22.9 86 +34 +34 очень
душно
1013.4 1009.5
00 14.09 Ю 2 9000 м 5/4 540 м
[Cu med, cong Ac trans Ci sp]
+28.6 +22.4 69 +37 +42 очень
душно
1014.6 1010.7 +25.4
03 14.09 Ю 3 9000 м 4/4 540 м
[Cu med, cong Ac trans Ci sp]
+30.8 +22.0 59 +39 +50 очень
душно
1012.7 1008.8
06 14.09 Ю 4 10 км 4/3 570 м
[Cu med, cong Ac trans Ci sp]
+30.8 +22.6 62 +40 +47 очень
душно
1010.6 1006.7
09 14.09 Ю 3 10 км 5/3 570 м
[Cu med, cong Ac trans Ci fib]
+28.7 +22.6 70 +38 +38 очень
душно
1011.0 1007.1
12 14.09 Ю 2 10 км 4/3 570 м
[Cu med, cong Ac trans Ci fib]
+26.8 +23.2 81 +36 +36 очень
душно
1012.8 1008.9 +32.0
15 14.09 штиль 0 10 км 4/3 570 м
[Cu med, cong Ac trans Ci fib]
+26.2 +23.7 86 +36 +36 очень
душно
1013.8 1009.9
18 14.09 штиль 0 10 км 6/5 570 м
[Cu med, cong Ac trans Ci fib]
+24.6 +23.2 92 +33 +33 очень
душно
1012.9 1009.0
21 14.09 штиль 0 10 км 4/3 570 м
[Cu med, cong Ac trans Ci fib]
+25.4 +22.9 86 +34 +34 очень
душно
1013.0 1009.1
00 15.09 ЮВ 4 10 км 4/3 300 м
[Cu med, cong Ac trans Ci fib]
+28.4 +23.2 73 +38 +42 очень
душно
1014.0 1010.1 +24.6
03 15.09 Ю 3 10 км 5/4 570 м
[Cu med, cong Ac trans Ci fib]
+30.9 +23.4 64 +41 +52 опасность
перегрева
1012.2 1008.3
06 15.09 Ю 3 10 км 4/3 570 м
[Cu med, cong Ac trans Ci fib]
+32.1 +21.3 53 +40 +48 очень
душно
1010.3 1006.4
09 15.09 СВ 1 10 км 3/3 570 м
[Cu med, cong Ci fib]
+28.6 +23.4 73 +39 +39 очень
душно
1010.9 1007.0
12 15.09 штиль 0 10 км 1/1 600 м
[Cu med, cong Ci fib]
+27.2 +22.2 74 +35 +35 очень
душно
1012.9 1009.0 +32.4
15 15.09 З 2 10 км 1/1 600 м
[Cu med, cong Ci fib]
+24.2 +21.6 85 +31 +31 очень
душно
1013.8 1009.9
18 15.09 штиль 0 10 км 3/1 570 м
[Cu med, cong Ac trans Ci fib]
+24.0 +22.3 90 +31 +31 очень
душно
1012.4 1008.5
21 15.09 штиль 0 10 км 1/1 600 м
[Cu med, cong Ac trans Ci fib]
+23.4 +21.1 87 +31 +31 очень
душно
1012.6 1008.7
00 16.09 Ю 3 10 км ясно +29.7 +21.9 63 +38 +45 очень
душно
1013.3 1009.3 +23.1 +32.8
03 16.09 С 4 10 км 3/3 1000 м
[]
+30.4 +22.5 63 +40 +50 очень
душно
1012.0 1008.1 +23.1 +32.8
06 16.09 С 3 10 км 3/3 1000 м
[]
+31.4 +22.5 59 +41 +50 опасность
перегрева
1010.0 1006.0 +23.1 +32.5
09 16.09 Ю 2 10 км 3/1 570 м
[Cu med, cong Ac trans Ci fib]
+29.2 +23.7 72 +40 +40 очень
душно
1010.0 1006.1
12 16.09 ЮЗ 4 10 км н/о +26.8 +23.3 81 +36 +36 очень
душно
1011.8 1007.9 +23.1 +32.3
15 16.09 штиль 0 10 км 5/4 540 м
[Cu med, cong Ac trans Ci fib]
+25.2 +22.5 85 +33 +33 очень
душно
1012.7 1008.8
18 16.09 штиль 0 10 км 4/1 570 м
[Cu med, cong Ac trans Ci fib]
+23.4 +20.6 84 +31 +31 очень
душно
1011.5 1007.6
21 16.09 З 2 10 км 3/1 570 м
[Cu hum Ac trans Ci fib]
+22.8 +20.3 86 +30 +30 очень
душно
1011.8 1007.9

 

Местоположение метеостанции Тернат (Индонезия): широта 0.77 долгота 127.36 высота над уровнем моря 23 м.

В архиве по умолчанию представлена погода в Тернате за последнюю неделю. Архивные данные за месяц целиком и за предыдущие месяцы, начиная с января 2011 года, Вы можете получить, выбрав интересующий диапазон дат из раскрывающегося списка и нажав кнопку "Ввод!".


*Определитесь, кто Вы:
робот инопланетянин человек

Внимание! Время в таблицах - всемирное. Для получения местного времени необходимо прибавить поправку, которая равна 9 ч.

Смотрите также архив погоды в соседних городах и на ближайших метеорологических станциях:

Погода в Голеа (Индонезия) (128 км)
Погода в Лабухе (Индонезия) (156 км)
Погода в Битунге (Индонезия) (253 км)
Погода в Менадо (Индонезия) (285 км)
Погода на Санане (Индонезия) (351 км)
Погода в Намлеа (Индонезия) (448 км)
Погода в Аэропорту Соронг-Джефман (Индонезия) (458 км)
Погода в Горонтало (Индонезия) (479 км)
Погода в Амахаи (Индонезия) (488 км)
Погода в Амбоне (Индонезия) (504 км)

Пояснения к столбцам:

Ветер - указаны скорость ветра в м/с - средняя за 10 мин, порывы в срок и между сроками (в фигурных скобках) и направление, откуда дует ветер: С - северный, СВ - северо-восточный, В - восточный, ЮВ - юго-восточный, Ю - южный, ЮЗ - юго-западный, З - западный, СЗ - северо-западный.
Видимость - горизонтальная дальность видимости в метрах или километрах. При видимости от 1 до 10 км при отсутствии осадков обычно наблюдается дымка, при ухудшении видимости до 1 км и менее - туман. В сухую погоду видимость может ухудшаться дымом, пылью или мглою.
Явления - указаны атмосферные явления, наблюдавшиеся в срок или в последний час перед сроком; фигурными скобками обозначены явления, наблюдавшиеся между сроками (за 1-3 часа до срока); квадратными скобками обозначены град или гололедные отложения с указанием их диаметра в мм.
Облачность - указаны через наклонную черту общая и нижняя облачность в баллах и высота нижней границы облаков в метрах; квадратными скобками обозначены формы облаков: Ci - перистые, Cs - перисто-слоистые, Cc - перисто-кучевые, Ac - высококучевые, As - высокослоистые, Sc - слоисто-кучевые, Ns - слоисто-дождевые, Cu - кучевые, Cb - кучево-дождевые. Подробнее классификацию облаков см. в Атласе облаков (PDF).
T - Температура воздуха - температура, измеренная на высоте 2 м над землей.
Td - Температура точки росы - температура, при понижении до которой содержащийся в воздухе водяной пар достигнет насыщения.
f - Относительная влажность воздуха - влажноcть воздуха, измеренная на высоте 2 м над землей.
Te - Эффективная температура - температура, которую ощущает одетый по сезону человек в тени. Характеристика душности погоды. При расчете учитывается влияние влажности воздуха и скорости ветра на теплоощущения человека.
Tes - Эффективная температура на солнце - температура, которую ощущает человек, с поправкой на солнечный нагрев. Характеристика знойности погоды. Зависит от высоты солнца над горизонтом, облачности и скорости ветра. Ночью, в пасмурную погоду, а также при ветре 12 м/с и более поправка равна нулю.
P - Атмосферное давление - приведенное к уровню моря атмосферное давление.
Po - Атмосферное давление - измеренное на уровне метеостанции атмосферное давление.
Tmin - Минимальная температура - минимум температуры воздуха на высоте 2 м над землей.
Tmax - Максимальная температура - максимум температуры воздуха на высоте 2 м над землей.
R - Количество осадков - Количество выпавших осадков за период времени, мм. При наведении курсора мыши на число - период времени, за который выпало указанное количество осадков.
R24 - Количество осадков - Количество выпавших осадков за 24 часа, мм.
S - Снежный покров - Высота снежного покрова, см. При наведении курсора мыши на число - состояние снежного покрова и степень покрытия местности в баллах.